User: anonymous   Login
Location: Mentone
(34.5413°N, 85.5351°W)
Time: 09:28:01
(UTC-05:00)
Language:

ADEOS Rocket - Orbit

View from above orbital plane
View from above orbital plane
View from above satellite
View from above satellite

Ground track
Ground track

The orbit data is extracted from the following two-line orbital elements,

1 24279U 96046C   15090.07694788  .00000038  00000-0  93059-4 0  9994
2 24279 098.7067 126.5033 0300151 193.1346 222.2791 13.47019245915310
Epoch (UTC): 31 March 2015 01:50:48
Eccentricity: 0.0300151
inclination: 98.7067°
perigee height: 859 km
apogee height: 1307 km
right ascension of ascending node: 126.5033°
argument of perigee: 193.1346°
revolutions per day: 13.47019245
mean anomaly at epoch: 222.2791°
orbit number at epoch: 91531

The dashed part of the orbit path shows where the satellite is in the earth's shadow,  

DLR